Time,TemperatureF,DewpointF,PressureIn,WindDirection,WindDirectionDegrees,WindSpeedMPH,WindSpeedGustMPH,Humidity,HourlyPrecipIn,Conditions,Clouds,dailyrainin,SoftwareType,DateUTC
2013-05-25 00:00:00,46.7,39.9,30.20,North,349,0.0,2.0,77,0.00,,,0.00,Wunderground v.1.15,2013-05-25 04:00:00,
2013-05-25 00:05:00,46.6,39.8,30.20,North,350,0.0,2.0,77,0.00,,,0.00,Wunderground v.1.15,2013-05-25 04:05:00,
2013-05-25 00:10:00,46.5,40.0,30.20,North,351,0.0,2.0,78,0.00,,,0.00,Wunderground v.1.15,2013-05-25 04:10:00,
2013-05-25 00:15:00,46.4,39.9,30.20,North,351,0.0,2.0,78,0.00,,,0.00,Wunderground v.1.15,2013-05-25 04:15:00,
2013-05-25 00:20:00,46.3,39.1,30.20,North,351,0.0,2.0,76,0.00,,,0.00,Wunderground v.1.15,2013-05-25 04:20:00,
2013-05-25 00:25:00,46.3,39.8,30.21,North,351,0.0,2.0,78,0.00,,,0.00,Wunderground v.1.15,2013-05-25 04:25:00,
2013-05-25 00:30:00,46.2,39.7,30.22,North,351,0.0,2.0,78,0.00,,,0.00,Wunderground v.1.15,2013-05-25 04:30:00,
2013-05-25 00:35:00,46.0,39.2,30.22,North,350,0.0,2.0,77,0.00,,,0.00,Wunderground v.1.15,2013-05-25 04:35:00,
2013-05-25 00:40:00,46.0,39.9,30.22,North,351,0.0,2.0,79,0.00,,,0.00,Wunderground v.1.15,2013-05-25 04:40:00,
2013-05-25 00:45:00,45.9,39.8,30.22,North,351,0.0,2.0,79,0.00,,,0.00,Wunderground v.1.15,2013-05-25 04:45:00,
2013-05-25 00:50:00,45.9,40.4,30.22,North,351,0.0,2.0,81,0.00,,,0.00,Wunderground v.1.15,2013-05-25 04:50:00,
2013-05-25 00:55:00,45.9,39.8,30.22,NE,37,0.0,2.0,79,0.00,,,0.00,Wunderground v.1.15,2013-05-25 04:55:00,
2013-05-25 01:00:00,46.0,39.5,30.22,NE,37,0.0,2.0,78,0.00,,,0.00,Wunderground v.1.15,2013-05-25 05:00:00,
2013-05-25 05:25:00,42.8,38.6,30.20,SE,141,0.0,2.0,85,0.00,,,0.00,Wunderground v.1.15,2013-05-25 09:25:00,
2013-05-25 05:30:00,42.8,38.3,30.21,SSE,147,0.0,2.0,84,0.00,,,0.00,Wunderground v.1.15,2013-05-25 09:30:00,
2013-05-25 05:35:00,42.9,38.4,30.20,SW,219,0.0,2.0,84,0.00,,,0.00,Wunderground v.1.15,2013-05-25 09:35:00,
2013-05-25 05:40:00,42.7,38.2,30.21,SE,132,0.0,2.0,84,0.00,,,0.00,Wunderground v.1.15,2013-05-25 09:40:00,
2013-05-25 05:45:00,42.7,38.2,30.21,SE,124,0.0,2.0,84,0.00,,,0.00,Wunderground v.1.15,2013-05-25 09:45:00,
2013-05-25 05:50:00,42.7,37.9,30.21,SE,126,0.0,2.0,83,0.00,,,0.00,Wunderground v.1.15,2013-05-25 09:50:00,
2013-05-25 05:55:00,43.0,37.9,30.21,SE,132,0.0,2.0,82,0.00,,,0.00,Wunderground v.1.15,2013-05-25 09:55:00,
2013-05-25 06:00:00,43.3,37.9,30.21,SE,141,0.0,2.0,81,0.00,,,0.00,Wunderground v.1.15,2013-05-25 10:00:00,
2013-05-25 06:05:00,43.4,37.6,30.21,SE,141,1.0,2.0,80,0.00,,,0.00,Wunderground v.1.15,2013-05-25 10:05:00,
2013-05-25 06:10:00,43.5,37.7,30.21,SSE,152,1.0,1.0,80,0.00,,,0.00,Wunderground v.1.15,2013-05-25 10:10:00,
2013-05-25 06:15:00,43.6,37.8,30.21,West,276,0.0,2.0,80,0.00,,,0.00,Wunderground v.1.15,2013-05-25 10:15:00,
2013-05-25 06:20:00,43.7,37.6,30.22,WSW,243,0.0,2.0,79,0.00,,,0.00,Wunderground v.1.15,2013-05-25 10:20:00,
2013-05-25 06:25:00,43.9,38.1,30.22,WSW,243,1.0,2.0,80,0.00,,,0.00,Wunderground v.1.15,2013-05-25 10:25:00,
2013-05-25 06:30:00,44.1,37.7,30.23,SE,143,1.0,1.0,78,0.00,,,0.00,Wunderground v.1.15,2013-05-25 10:30:00,
2013-05-25 06:40:00,44.1,38.0,30.24,WSW,243,1.0,1.0,79,0.00,,,0.00,Wunderground v.1.15,2013-05-25 10:40:00,
2013-05-25 06:45:00,43.9,37.8,30.24,SSW,210,1.0,2.0,79,0.00,,,0.00,Wunderground v.1.15,2013-05-25 10:45:00,
2013-05-25 06:50:00,43.7,37.9,30.25,SSE,150,1.0,1.0,80,0.00,,,0.00,Wunderground v.1.15,2013-05-25 10:50:00,
2013-05-25 06:55:00,43.5,38.1,30.25,SE,142,1.0,2.0,81,0.00,,,0.00,Wunderground v.1.15,2013-05-25 10:55:00,
2013-05-25 07:00:00,43.4,38.3,30.25,SE,140,0.0,2.0,82,0.00,,,0.00,Wunderground v.1.15,2013-05-25 11:00:00,
2013-05-25 07:05:00,43.3,38.2,30.25,SSE,149,0.0,2.0,82,0.00,,,0.00,Wunderground v.1.15,2013-05-25 11:05:00,
2013-05-25 07:10:00,43.3,38.2,30.25,SE,130,1.0,1.0,82,0.00,,,0.00,Wunderground v.1.15,2013-05-25 11:10:00,
2013-05-25 07:20:00,43.3,38.5,30.26,SE,145,0.0,2.0,83,0.00,,,0.00,Wunderground v.1.15,2013-05-25 11:20:00,
2013-05-25 07:25:00,43.4,38.6,30.26,SE,139,0.0,2.0,83,0.00,,,0.00,Wunderground v.1.15,2013-05-25 11:25:00,
2013-05-25 07:30:00,43.5,38.7,30.26,ESE,120,0.0,2.0,83,0.00,,,0.00,Wunderground v.1.15,2013-05-25 11:30:00,
2013-05-25 07:35:00,43.5,39.0,30.26,ESE,119,0.0,2.0,84,0.00,,,0.00,Wunderground v.1.15,2013-05-25 11:35:00,
2013-05-25 07:40:00,43.5,39.3,30.27,ESE,121,0.0,2.0,85,0.00,,,0.00,Wunderground v.1.15,2013-05-25 11:40:00,
2013-05-25 07:45:00,43.7,39.2,30.27,SE,130,0.0,2.0,84,0.00,,,0.00,Wunderground v.1.15,2013-05-25 11:45:00,
2013-05-25 07:50:00,44.0,39.2,30.27,SSE,158,0.0,2.0,83,0.00,,,0.00,Wunderground v.1.15,2013-05-25 11:50:00,
2013-05-25 07:55:00,44.1,39.6,30.27,NW,305,0.0,2.0,84,0.00,,,0.00,Wunderground v.1.15,2013-05-25 11:55:00,
2013-05-25 08:00:00,43.9,39.4,30.27,SE,143,0.0,2.0,84,0.00,,,0.00,Wunderground v.1.15,2013-05-25 12:00:00,
2013-05-25 08:05:00,44.0,39.5,30.27,SE,124,0.0,2.0,84,0.00,,,0.00,Wunderground v.1.15,2013-05-25 12:05:00,
2013-05-25 08:10:00,44.3,40.1,30.27,WNW,302,0.0,2.0,85,0.00,,,0.00,Wunderground v.1.15,2013-05-25 12:10:00,
2013-05-25 08:20:00,44.9,39.1,30.28,SW,228,0.0,2.0,80,0.00,,,0.00,Wunderground v.1.15,2013-05-25 12:20:00,
2013-05-25 08:25:00,45.7,39.9,30.29,SSE,160,0.0,2.0,80,0.00,,,0.00,Wunderground v.1.15,2013-05-25 12:25:00,
2013-05-25 08:30:00,46.1,39.6,30.29,SE,128,0.0,2.0,78,0.00,,,0.00,Wunderground v.1.15,2013-05-25 12:30:00,
2013-05-25 08:40:00,46.8,40.0,30.29,SSW,198,0.0,2.0,77,0.00,,,0.00,Wunderground v.1.15,2013-05-25 12:40:00,
2013-05-25 08:45:00,47.1,39.9,30.29,ESE,110,0.0,2.0,76,0.00,,,0.00,Wunderground v.1.15,2013-05-25 12:45:00,
2013-05-25 08:50:00,47.4,40.6,30.29,SE,138,1.0,1.0,77,0.00,,,0.00,Wunderground v.1.15,2013-05-25 12:50:00,
2013-05-25 08:55:00,47.5,40.0,30.29,South,170,0.0,2.0,75,0.00,,,0.00,Wunderground v.1.15,2013-05-25 12:55:00,
2013-05-25 09:00:00,47.7,40.5,30.30,ESE,120,0.0,2.0,76,0.00,,,0.00,Wunderground v.1.15,2013-05-25 13:00:00,
2013-05-25 09:05:00,48.0,41.1,30.30,ESE,115,1.0,2.0,77,0.00,,,0.00,Wunderground v.1.15,2013-05-25 13:05:00,
2013-05-25 09:10:00,48.3,40.7,30.29,ESE,103,1.0,2.0,75,0.00,,,0.00,Wunderground v.1.15,2013-05-25 13:10:00,
2013-05-25 09:20:00,49.2,40.2,30.30,SE,141,1.0,2.0,71,0.00,,,0.00,Wunderground v.1.15,2013-05-25 13:20:00,
2013-05-25 09:25:00,49.7,41.4,30.30,ESE,103,2.0,2.0,73,0.00,,,0.00,Wunderground v.1.15,2013-05-25 13:25:00,
2013-05-25 09:30:00,50.1,41.4,30.30,ESE,122,2.0,2.0,72,0.00,,,0.00,Wunderground v.1.15,2013-05-25 13:30:00,
2013-05-25 09:35:00,50.5,41.4,30.30,ESE,117,1.0,2.0,71,0.00,,,0.00,Wunderground v.1.15,2013-05-25 13:35:00,
2013-05-25 09:40:00,51.1,42.4,30.30,SSW,199,1.0,1.0,72,0.00,,,0.00,Wunderground v.1.15,2013-05-25 13:40:00,
2013-05-25 09:45:00,51.8,41.6,30.30,WSW,239,1.0,2.0,68,0.00,,,0.00,Wunderground v.1.15,2013-05-25 13:45:00,
2013-05-25 09:50:00,52.4,41.8,30.31,WSW,252,1.0,1.0,67,0.00,,,0.00,Wunderground v.1.15,2013-05-25 13:50:00,
2013-05-25 09:55:00,53.1,40.8,30.31,ESE,110,0.0,2.0,63,0.00,,,0.00,Wunderground v.1.15,2013-05-25 13:55:00,
2013-05-25 10:00:00,53.9,42.0,30.31,SE,136,0.0,2.0,64,0.00,,,0.00,Wunderground v.1.15,2013-05-25 14:00:00,
2013-05-25 10:05:00,54.4,42.5,30.31,East,92,1.0,2.0,64,0.00,,,0.00,Wunderground v.1.15,2013-05-25 14:05:00,
2013-05-25 10:10:00,55.1,43.1,30.30,East,92,1.0,1.0,64,0.00,,,0.00,Wunderground v.1.15,2013-05-25 14:10:00,
2013-05-25 10:20:00,56.0,41.4,30.31,East,99,1.0,2.0,58,0.00,,,0.00,Wunderground v.1.15,2013-05-25 14:20:00,
2013-05-25 10:25:00,56.6,41.1,30.31,WSW,248,1.0,2.0,56,0.00,,,0.00,Wunderground v.1.15,2013-05-25 14:25:00,
2013-05-25 10:30:00,57.1,41.1,30.31,SSE,167,1.0,1.0,55,0.00,,,0.00,Wunderground v.1.15,2013-05-25 14:30:00,
2013-05-25 10:35:00,57.7,41.6,30.31,ESE,104,1.0,2.0,55,0.00,,,0.00,Wunderground v.1.15,2013-05-25 14:35:00,
2013-05-25 10:40:00,58.2,43.0,30.31,ESE,107,1.0,1.0,57,0.00,,,0.00,Wunderground v.1.15,2013-05-25 14:40:00,
2013-05-25 10:45:00,58.6,40.0,30.30,SSE,155,1.0,2.0,50,0.00,,,0.00,Wunderground v.1.15,2013-05-25 14:45:00,
2013-05-25 10:55:00,59.5,41.3,30.30,ENE,74,1.0,2.0,51,0.00,,,0.00,Wunderground v.1.15,2013-05-25 14:55:00,
2013-05-25 11:00:00,59.8,40.1,30.31,WSW,249,1.0,1.0,48,0.00,,,0.00,Wunderground v.1.15,2013-05-25 15:00:00,
2013-05-25 11:05:00,60.4,43.2,30.30,SE,131,1.0,2.0,53,0.00,,,0.00,Wunderground v.1.15,2013-05-25 15:05:00,
2013-05-25 11:10:00,60.8,42.0,30.30,SSE,160,1.0,1.0,50,0.00,,,0.00,Wunderground v.1.15,2013-05-25 15:10:00,
2013-05-25 11:15:00,61.8,43.0,30.29,ESE,118,1.0,2.0,50,0.00,,,0.00,Wunderground v.1.15,2013-05-25 15:15:00,
2013-05-25 11:20:00,61.8,41.9,30.29,SSW,197,1.0,4.0,48,0.00,,,0.00,Wunderground v.1.15,2013-05-25 15:20:00,
2013-05-25 11:25:00,61.7,41.8,30.29,SSE,162,2.0,4.0,48,0.00,,,0.00,Wunderground v.1.15,2013-05-25 15:25:00,
2013-05-25 11:30:00,62.1,39.3,30.29,ESE,116,2.0,3.0,43,0.00,,,0.00,Wunderground v.1.15,2013-05-25 15:30:00,
2013-05-25 11:35:00,62.3,42.3,30.29,SW,233,2.0,3.0,48,0.00,,,0.00,Wunderground v.1.15,2013-05-25 15:35:00,
2013-05-25 11:40:00,62.8,38.7,30.30,WSW,242,1.0,1.0,41,0.00,,,0.00,Wunderground v.1.15,2013-05-25 15:40:00,
2013-05-25 11:45:00,62.9,39.4,30.29,SSE,165,1.0,2.0,42,0.00,,,0.00,Wunderground v.1.15,2013-05-25 15:45:00,
2013-05-25 11:50:00,63.3,39.8,30.29,WSW,252,1.0,2.0,42,0.00,,,0.00,Wunderground v.1.15,2013-05-25 15:50:00,
2013-05-25 11:55:00,63.6,42.4,30.29,WSW,255,1.0,2.0,46,0.00,,,0.00,Wunderground v.1.15,2013-05-25 15:55:00,
2013-05-25 12:00:00,63.9,39.7,30.29,SSW,193,1.0,2.0,41,0.00,,,0.00,Wunderground v.1.15,2013-05-25 16:00:00,
2013-05-25 12:05:00,64.1,39.3,30.29,SE,145,1.0,2.0,40,0.00,,,0.00,Wunderground v.1.15,2013-05-25 16:05:00,
2013-05-25 12:10:00,64.7,42.9,30.29,SE,141,1.0,1.0,45,0.00,,,0.00,Wunderground v.1.15,2013-05-25 16:10:00,
2013-05-25 12:15:00,65.3,39.7,30.29,SW,222,1.0,2.0,39,0.00,,,0.00,Wunderground v.1.15,2013-05-25 16:15:00,
2013-05-25 12:20:00,65.5,39.9,30.28,WSW,248,1.0,2.0,39,0.00,,,0.00,Wunderground v.1.15,2013-05-25 16:20:00,
2013-05-25 12:25:00,64.9,36.6,30.27,SW,233,1.0,2.0,35,0.00,,,0.00,Wunderground v.1.15,2013-05-25 16:25:00,
2013-05-25 12:30:00,64.9,37.3,30.27,SE,135,1.0,1.0,36,0.00,,,0.00,Wunderground v.1.15,2013-05-25 16:30:00,
2013-05-25 12:35:00,65.8,36.6,30.27,SW,232,1.0,2.0,34,0.00,,,0.00,Wunderground v.1.15,2013-05-25 16:35:00,
2013-05-25 12:40:00,66.0,36.1,30.27,SE,132,1.0,1.0,33,0.00,,,0.00,Wunderground v.1.15,2013-05-25 16:40:00,
2013-05-25 12:50:00,66.1,34.6,30.27,SSW,208,1.0,2.0,31,0.00,,,0.00,Wunderground v.1.15,2013-05-25 16:50:00,
2013-05-25 12:55:00,66.3,33.9,30.27,SW,235,1.0,2.0,30,0.00,,,0.00,Wunderground v.1.15,2013-05-25 16:55:00,
2013-05-25 13:05:00,66.8,34.3,30.27,SE,143,1.0,2.0,30,0.00,,,0.00,Wunderground v.1.15,2013-05-25 17:05:00,
2013-05-25 13:10:00,67.3,34.8,30.27,SE,124,1.0,3.0,30,0.00,,,0.00,Wunderground v.1.15,2013-05-25 17:10:00,
2013-05-25 13:20:00,67.9,32.7,30.26,South,172,1.0,2.0,27,0.00,,,0.00,Wunderground v.1.15,2013-05-25 17:20:00,
2013-05-25 13:25:00,67.8,30.7,30.26,WSW,242,2.0,2.0,25,0.00,,,0.00,Wunderground v.1.15,2013-05-25 17:25:00,
2013-05-25 13:30:00,67.8,29.7,30.26,SW,226,2.0,2.0,24,0.00,,,0.00,Wunderground v.1.15,2013-05-25 17:30:00,
2013-05-25 13:35:00,68.0,31.8,30.26,SSW,201,2.0,2.0,26,0.00,,,0.00,Wunderground v.1.15,2013-05-25 17:35:00,
2013-05-25 13:45:00,68.8,30.5,30.25,SSW,207,1.0,2.0,24,0.00,,,0.00,Wunderground v.1.15,2013-05-25 17:45:00,
2013-05-25 13:50:00,69.3,30.9,30.25,SSE,159,1.0,1.0,24,0.00,,,0.00,Wunderground v.1.15,2013-05-25 17:50:00,
2013-05-25 13:55:00,69.6,33.2,30.25,SSE,165,1.0,2.0,26,0.00,,,0.00,Wunderground v.1.15,2013-05-25 17:55:00,
2013-05-25 14:00:00,70.1,37.2,30.24,WSW,242,1.0,2.0,30,0.00,,,0.00,Wunderground v.1.15,2013-05-25 18:00:00,
2013-05-25 14:05:00,70.3,31.8,30.24,WSW,257,1.0,2.0,24,0.00,,,0.00,Wunderground v.1.15,2013-05-25 18:05:00,
2013-05-25 14:10:00,70.1,31.6,30.24,SE,133,1.0,1.0,24,0.00,,,0.00,Wunderground v.1.15,2013-05-25 18:10:00,
2013-05-25 14:15:00,70.0,31.5,30.24,South,170,2.0,2.0,24,0.00,,,0.00,Wunderground v.1.15,2013-05-25 18:15:00,
2013-05-25 14:25:00,70.3,32.8,30.23,South,170,1.0,3.0,25,0.00,,,0.00,Wunderground v.1.15,2013-05-25 18:25:00,
2013-05-25 14:35:00,70.6,33.0,30.22,WSW,239,2.0,2.0,25,0.00,,,0.00,Wunderground v.1.15,2013-05-25 18:35:00,
2013-05-25 14:40:00,70.8,33.2,30.22,SSW,198,1.0,1.0,25,0.00,,,0.00,Wunderground v.1.15,2013-05-25 18:40:00,
2013-05-25 14:50:00,71.7,35.0,30.22,SSW,210,2.0,2.0,26,0.00,,,0.00,Wunderground v.1.15,2013-05-25 18:50:00,
2013-05-25 15:00:00,71.5,31.7,30.21,SW,217,1.0,1.0,23,0.00,,,0.00,Wunderground v.1.15,2013-05-25 19:00:00,
2013-05-25 15:05:00,71.9,36.1,30.21,SSE,149,1.0,2.0,27,0.00,,,0.00,Wunderground v.1.15,2013-05-25 19:05:00,
2013-05-25 15:10:00,72.0,33.2,30.21,WSW,238,1.0,2.0,24,0.00,,,0.00,Wunderground v.1.15,2013-05-25 19:10:00,
2013-05-25 15:15:00,72.0,35.2,30.21,SSW,210,2.0,2.0,26,0.00,,,0.00,Wunderground v.1.15,2013-05-25 19:15:00,
2013-05-25 15:20:00,72.1,33.3,30.21,WSW,239,2.0,2.0,24,0.00,,,0.00,Wunderground v.1.15,2013-05-25 19:20:00,
2013-05-25 15:25:00,72.1,34.3,30.20,East,79,2.0,2.0,25,0.00,,,0.00,Wunderground v.1.15,2013-05-25 19:25:00,
2013-05-25 15:30:00,71.8,33.0,30.20,SSE,167,2.0,2.0,24,0.00,,,0.00,Wunderground v.1.15,2013-05-25 19:30:00,
2013-05-25 15:35:00,71.9,35.1,30.21,South,173,1.0,2.0,26,0.00,,,0.00,Wunderground v.1.15,2013-05-25 19:35:00,
2013-05-25 15:40:00,72.0,29.9,30.21,West,262,2.0,2.0,21,0.00,,,0.00,Wunderground v.1.15,2013-05-25 19:40:00,
2013-05-25 15:45:00,72.0,32.1,30.21,WSW,252,2.0,2.0,23,0.00,,,0.00,Wunderground v.1.15,2013-05-25 19:45:00,
2013-05-25 15:50:00,72.0,36.2,30.21,West,270,1.0,1.0,27,0.00,,,0.00,Wunderground v.1.15,2013-05-25 19:50:00,
2013-05-25 16:00:00,71.8,34.1,30.21,WSW,245,1.0,2.0,25,0.00,,,0.00,Wunderground v.1.15,2013-05-25 20:00:00,
2013-05-25 16:05:00,71.5,32.8,30.20,WSW,245,1.0,2.0,24,0.00,,,0.00,Wunderground v.1.15,2013-05-25 20:05:00,
2013-05-25 16:10:00,71.3,33.6,30.20,WSW,246,2.0,2.0,25,0.00,,,0.00,Wunderground v.1.15,2013-05-25 20:10:00,
2013-05-25 16:15:00,71.3,31.6,30.20,WSW,239,1.0,2.0,23,0.00,,,0.00,Wunderground v.1.15,2013-05-25 20:15:00,
2013-05-25 16:20:00,71.4,32.7,30.20,WSW,245,1.0,2.0,24,0.00,,,0.00,Wunderground v.1.15,2013-05-25 20:20:00,
2013-05-25 16:25:00,71.4,34.7,30.20,SW,226,1.0,2.0,26,0.00,,,0.00,Wunderground v.1.15,2013-05-25 20:25:00,
2013-05-25 16:30:00,71.3,37.4,30.20,WSW,239,1.0,2.0,29,0.00,,,0.00,Wunderground v.1.15,2013-05-25 20:30:00,
2013-05-25 16:35:00,71.1,34.5,30.20,SW,224,1.0,2.0,26,0.00,,,0.00,Wunderground v.1.15,2013-05-25 20:35:00,
2013-05-25 16:40:00,70.9,34.3,30.20,SW,224,1.0,3.0,26,0.00,,,0.00,Wunderground v.1.15,2013-05-25 20:40:00,
2013-05-25 16:45:00,70.7,36.0,30.20,SW,231,1.0,3.0,28,0.00,,,0.00,Wunderground v.1.15,2013-05-25 20:45:00,
2013-05-25 16:50:00,70.3,35.6,30.20,SW,226,1.0,3.0,28,0.00,,,0.00,Wunderground v.1.15,2013-05-25 20:50:00,
2013-05-25 16:55:00,69.8,33.3,30.20,WSW,238,1.0,3.0,26,0.00,,,0.00,Wunderground v.1.15,2013-05-25 20:55:00,
2013-05-25 17:00:00,69.4,34.9,30.20,SSE,160,1.0,2.0,28,0.00,,,0.00,Wunderground v.1.15,2013-05-25 21:00:00,
2013-05-25 17:05:00,69.0,36.3,30.20,SSE,159,1.0,2.0,30,0.00,,,0.00,Wunderground v.1.15,2013-05-25 21:05:00,
2013-05-25 17:10:00,68.6,36.7,30.21,SW,215,1.0,2.0,31,0.00,,,0.00,Wunderground v.1.15,2013-05-25 21:10:00,
2013-05-25 17:15:00,68.0,35.4,30.20,WSW,246,1.0,2.0,30,0.00,,,0.00,Wunderground v.1.15,2013-05-25 21:15:00,
2013-05-25 17:20:00,67.5,36.6,30.20,WSW,249,1.0,2.0,32,0.00,,,0.00,Wunderground v.1.15,2013-05-25 21:20:00,
2013-05-25 17:30:00,66.6,37.3,30.20,WSW,250,1.0,2.0,34,0.00,,,0.00,Wunderground v.1.15,2013-05-25 21:30:00,
2013-05-25 17:35:00,66.2,37.0,30.20,SW,232,1.0,2.0,34,0.00,,,0.00,Wunderground v.1.15,2013-05-25 21:35:00,
2013-05-25 17:40:00,66.0,37.5,30.20,SW,235,1.0,2.0,35,0.00,,,0.00,Wunderground v.1.15,2013-05-25 21:40:00,
2013-05-25 17:45:00,65.7,37.3,30.20,SSE,167,1.0,2.0,35,0.00,,,0.00,Wunderground v.1.15,2013-05-25 21:45:00,
2013-05-25 17:50:00,65.5,37.8,30.21,South,187,1.0,2.0,36,0.00,,,0.00,Wunderground v.1.15,2013-05-25 21:50:00,
2013-05-25 17:55:00,65.2,36.1,30.20,WSW,241,1.0,2.0,34,0.00,,,0.00,Wunderground v.1.15,2013-05-25 21:55:00,
2013-05-25 18:00:00,65.0,36.7,30.21,SW,226,1.0,2.0,35,0.00,,,0.00,Wunderground v.1.15,2013-05-25 22:00:00,
2013-05-25 18:05:00,64.7,39.2,30.20,SW,231,1.0,2.0,39,0.00,,,0.00,Wunderground v.1.15,2013-05-25 22:05:00,
2013-05-25 18:10:00,64.5,36.9,30.20,West,272,1.0,2.0,36,0.00,,,0.00,Wunderground v.1.15,2013-05-25 22:10:00,
2013-05-25 18:15:00,64.3,36.8,30.20,SW,234,1.0,2.0,36,0.00,,,0.00,Wunderground v.1.15,2013-05-25 22:15:00,
2013-05-25 18:20:00,64.1,38.0,30.20,WSW,253,1.0,2.0,38,0.00,,,0.00,Wunderground v.1.15,2013-05-25 22:20:00,
2013-05-25 18:30:00,63.7,35.5,30.20,WSW,255,1.0,1.0,35,0.00,,,0.00,Wunderground v.1.15,2013-05-25 22:30:00,
2013-05-25 18:35:00,63.5,37.4,30.20,SE,129,1.0,2.0,38,0.00,,,0.00,Wunderground v.1.15,2013-05-25 22:35:00,
2013-05-25 18:40:00,63.2,35.8,30.20,WSW,246,1.0,2.0,36,0.00,,,0.00,Wunderground v.1.15,2013-05-25 22:40:00,
2013-05-25 18:45:00,63.1,37.1,30.20,SW,231,1.0,2.0,38,0.00,,,0.00,Wunderground v.1.15,2013-05-25 22:45:00,
2013-05-25 18:50:00,62.9,37.5,30.20,SW,236,1.0,2.0,39,0.00,,,0.00,Wunderground v.1.15,2013-05-25 22:50:00,
2013-05-25 18:55:00,62.5,40.3,30.20,West,281,1.0,2.0,44,0.00,,,0.00,Wunderground v.1.15,2013-05-25 22:55:00,
2013-05-25 19:05:00,62.0,37.4,30.20,WSW,239,1.0,2.0,40,0.00,,,0.00,Wunderground v.1.15,2013-05-25 23:05:00,
2013-05-25 19:10:00,62.1,37.5,30.20,WSW,253,1.0,1.0,40,0.00,,,0.00,Wunderground v.1.15,2013-05-25 23:10:00,
2013-05-25 19:15:00,61.9,37.3,30.21,WSW,248,1.0,2.0,40,0.00,,,0.00,Wunderground v.1.15,2013-05-25 23:15:00,
2013-05-25 19:20:00,61.7,39.0,30.21,SW,231,1.0,2.0,43,0.00,,,0.00,Wunderground v.1.15,2013-05-25 23:20:00,
2013-05-25 19:25:00,61.6,35.7,30.21,SW,226,1.0,2.0,38,0.00,,,0.00,Wunderground v.1.15,2013-05-25 23:25:00,
2013-05-25 19:30:00,61.5,38.8,30.21,WSW,239,1.0,2.0,43,0.00,,,0.00,Wunderground v.1.15,2013-05-25 23:30:00,
2013-05-25 19:35:00,61.3,38.6,30.21,WSW,242,1.0,2.0,43,0.00,,,0.00,Wunderground v.1.15,2013-05-25 23:35:00,
2013-05-25 19:40:00,60.9,37.0,30.21,SSW,212,1.0,1.0,41,0.00,,,0.00,Wunderground v.1.15,2013-05-25 23:40:00,
2013-05-25 19:45:00,60.5,40.7,30.22,WSW,246,0.0,2.0,48,0.00,,,0.00,Wunderground v.1.15,2013-05-25 23:45:00,
2013-05-25 19:50:00,59.9,41.7,30.22,WSW,255,0.0,2.0,51,0.00,,,0.00,Wunderground v.1.15,2013-05-25 23:50:00,
2013-05-25 20:00:00,59.0,39.9,30.22,West,271,0.0,2.0,49,0.00,,,0.00,Wunderground v.1.15,2013-05-26 00:00:00,
2013-05-25 20:05:00,58.6,40.0,30.22,West,274,0.0,2.0,50,0.00,,,0.00,Wunderground v.1.15,2013-05-26 00:05:00,
2013-05-25 20:10:00,58.3,38.7,30.22,West,274,0.0,2.0,48,0.00,,,0.00,Wunderground v.1.15,2013-05-26 00:10:00,
2013-05-25 20:20:00,57.6,39.6,30.22,West,274,0.0,2.0,51,0.00,,,0.00,Wunderground v.1.15,2013-05-26 00:20:00,
2013-05-25 20:25:00,57.2,39.2,30.21,West,274,0.0,2.0,51,0.00,,,0.00,Wunderground v.1.15,2013-05-26 00:25:00,
2013-05-25 20:30:00,56.9,39.9,30.21,West,274,0.0,2.0,53,0.00,,,0.00,Wunderground v.1.15,2013-05-26 00:30:00,
2013-05-25 20:35:00,56.6,39.2,30.21,West,274,0.0,2.0,52,0.00,,,0.00,Wunderground v.1.15,2013-05-26 00:35:00,
2013-05-25 20:40:00,56.4,40.0,30.21,West,274,0.0,2.0,54,0.00,,,0.00,Wunderground v.1.15,2013-05-26 00:40:00,
2013-05-25 20:50:00,55.8,41.7,30.21,West,275,0.0,2.0,59,0.00,,,0.00,Wunderground v.1.15,2013-05-26 00:50:00,
2013-05-25 20:55:00,55.6,41.9,30.21,West,273,0.0,2.0,60,0.00,,,0.00,Wunderground v.1.15,2013-05-26 00:55:00,
2013-05-25 21:00:00,55.3,41.2,30.21,West,273,0.0,2.0,59,0.00,,,0.00,Wunderground v.1.15,2013-05-26 01:00:00,
2013-05-25 21:05:00,55.0,40.0,30.21,West,274,0.0,2.0,57,0.00,,,0.00,Wunderground v.1.15,2013-05-26 01:05:00,
2013-05-25 21:10:00,54.7,40.6,30.21,West,274,0.0,2.0,59,0.00,,,0.00,Wunderground v.1.15,2013-05-26 01:10:00,
2013-05-25 21:15:00,54.5,40.9,30.21,West,274,0.0,2.0,60,0.00,,,0.00,Wunderground v.1.15,2013-05-26 01:15:00,
2013-05-25 21:20:00,54.3,41.6,30.21,West,273,0.0,2.0,62,0.00,,,0.00,Wunderground v.1.15,2013-05-26 01:20:00,
2013-05-25 21:25:00,54.2,40.6,30.21,West,274,0.0,2.0,60,0.00,,,0.00,Wunderground v.1.15,2013-05-26 01:25:00,
2013-05-25 21:35:00,53.9,40.8,30.21,NW,307,0.0,2.0,61,0.00,,,0.00,Wunderground v.1.15,2013-05-26 01:35:00,
2013-05-25 21:40:00,54.0,42.5,30.21,NW,309,0.0,2.0,65,0.00,,,0.00,Wunderground v.1.15,2013-05-26 01:40:00,
2013-05-25 21:45:00,53.9,41.6,30.21,NW,309,0.0,2.0,63,0.00,,,0.00,Wunderground v.1.15,2013-05-26 01:45:00,
2013-05-25 21:50:00,53.7,40.6,30.20,NW,315,0.0,2.0,61,0.00,,,0.00,Wunderground v.1.15,2013-05-26 01:50:00,
2013-05-25 22:00:00,53.5,39.9,30.20,NW,315,0.0,2.0,60,0.00,,,0.00,Wunderground v.1.15,2013-05-26 02:00:00,
2013-05-25 22:05:00,53.4,39.9,30.20,NW,314,0.0,2.0,60,0.00,,,0.00,Wunderground v.1.15,2013-05-26 02:05:00,
2013-05-25 22:15:00,53.4,39.4,30.20,NW,316,0.0,2.0,59,0.00,,,0.00,Wunderground v.1.15,2013-05-26 02:15:00,
2013-05-25 22:20:00,53.4,39.4,30.20,NW,316,0.0,2.0,59,0.00,,,0.00,Wunderground v.1.15,2013-05-26 02:20:00,
2013-05-25 22:25:00,53.4,39.4,30.20,North,351,0.0,2.0,59,0.00,,,0.00,Wunderground v.1.15,2013-05-26 02:25:00,
2013-05-25 22:30:00,53.4,39.0,30.20,North,351,0.0,2.0,58,0.00,,,0.00,Wunderground v.1.15,2013-05-26 02:30:00,
2013-05-25 22:35:00,53.4,39.0,30.20,North,351,0.0,2.0,58,0.00,,,0.00,Wunderground v.1.15,2013-05-26 02:35:00,
2013-05-25 22:40:00,53.5,39.1,30.19,North,351,0.0,2.0,58,0.00,,,0.00,Wunderground v.1.15,2013-05-26 02:40:00,
2013-05-25 22:50:00,53.6,38.7,30.18,North,352,0.0,2.0,57,0.00,,,0.00,Wunderground v.1.15,2013-05-26 02:50:00,
2013-05-25 22:55:00,53.7,39.3,30.19,North,352,0.0,2.0,58,0.00,,,0.00,Wunderground v.1.15,2013-05-26 02:55:00,
2013-05-25 23:00:00,53.6,40.0,30.19,North,351,0.0,2.0,60,0.00,,,0.00,Wunderground v.1.15,2013-05-26 03:00:00,
2013-05-25 23:05:00,53.6,39.6,30.19,North,351,0.0,2.0,59,0.00,,,0.00,Wunderground v.1.15,2013-05-26 03:05:00,
2013-05-25 23:15:00,53.6,39.2,30.20,NNW,347,0.0,2.0,58,0.00,,,0.00,Wunderground v.1.15,2013-05-26 03:15:00,
2013-05-25 23:20:00,53.7,39.3,30.20,NNW,347,0.0,2.0,58,0.00,,,0.00,Wunderground v.1.15,2013-05-26 03:20:00,
2013-05-25 23:25:00,53.8,38.5,30.21,NNW,347,0.0,2.0,56,0.00,,,0.00,Wunderground v.1.15,2013-05-26 03:25:00,
2013-05-25 23:30:00,54.0,38.6,30.21,NNW,347,0.0,2.0,56,0.00,,,0.00,Wunderground v.1.15,2013-05-26 03:30:00,
2013-05-25 23:40:00,54.5,39.1,30.20,NNW,347,0.0,2.0,56,0.00,,,0.00,Wunderground v.1.15,2013-05-26 03:40:00,
2013-05-25 23:45:00,55.0,39.6,30.20,NNW,347,0.0,2.0,56,0.00,,,0.00,Wunderground v.1.15,2013-05-26 03:45:00,
2013-05-25 23:50:00,55.1,39.2,30.20,NNW,347,0.0,2.0,55,0.00,,,0.00,Wunderground v.1.15,2013-05-26 03:50:00,